Location: Armstrong Village
(14.3346°N, 120.9854°E)
Time: 11:53:15
(UTC+00:00)

Delta 2 Rocket - Pass Details

Date: 13 January 2026
Orbit: 890 x 1677 km, 26.4° (Epoch: 17 February)

Event Time Altitude Azimuth Distance (km) Brightness Sun altitude
Rises 10:47:31 0° 295° (WNW) 4,049 8.0 -14.9°
Reaches altitude 10° 10:50:33 10° 298° (WNW) 2,969 7.1 -15.6°
Maximum altitude 10:57:37 68° 21° (NNE) 1,050 4.0 -17.3°
Enters shadow 11:01:20 25° 98° (E) 1,766 4.8 -18.1°
